RH
30 29 29 32 36 39 39 39 37 36 37 35 32 28 24 23 21 18 12 7 6 6 6 8 9 11 11 10 8 5 4 3 2 2 2 2 2 2 2 2 2 2 2 2 2 2 2 2 2 3 3 3 5 6 10 15 20 28 34 39 33 23 22 22 26 33 36 39 40 42 44 43 37 29 27 26 25 24 23 22 22 21 14 9 9 9 9 9
25 23 23 26 31 36 38 38 37 36 36 33 30 25 22 22 20 16 10 6 5 6 5 5 6 6 7 7 5 4 3 3 2 2 2 2 2 2 2 2 2 2 2 3 2 2 2 3 3 3 3 3 6 8 13 19 23 28 32 29 19 16 20 23 31 37 39 41 41 43 44 42 35 28 25 24 24 24 23 23 22 16 10 10 10 10 10 10
25 24 24 25 27 30 33 35 36 36 35 32 27 22 22 21 18 13 8 5 5 5 5 5 5 5 5 5 4 4 3 3 2 2 3 3 3 3 3 2 3 3 3 3 3 3 3 3 3 3 3 3 6 9 14 20 25 29 30 24 15 18 24 27 34 40 41 41 39 41 43 41 35 28 27 26 26 26 24 22 18 12 10 11 11 11 11 11
32 32 32 32 31 29 29 32 34 35 34 30 24 21 22 20 15 10 6 4 5 4 4 5 5 5 4 4 4 4 3 3 3 4 4 5 5 5 4 4 4 4 4 4 3 3 3 3 3 4 4 4 6 9 14 18 23 26 24 20 17 22 26 29 36 39 36 33 30 32 35 37 35 31 30 30 30 27 22 18 14 11 11 12 11 12 12 12
38 39 41 42 42 37 31 32 35 35 32 26 22 22 23 18 11 7 4 4 4 4 4 4 5 5 4 4 3 3 3 3 6 9 10 11 10 10 8 6 5 4 5 4 4 4 4 4 4 5 4 5 6 7 11 16 19 19 15 14 16 19 21 26 32 31 26 22 22 24 26 28 29 30 29 29 27 22 17 13 12 12 11 12 12 13 13 14
42 44 46 48 48 41 35 36 37 33 26 22 22 23 20 12 8 6 3 3 4 3 4 5 5 5 3 3 3 3 3 4 6 8 8 9 9 9 8 6 4 4 4 4 4 5 5 5 5 6 5 5 6 6 8 12 15 16 13 13 15 16 16 18 21 21 19 18 20 21 22 22 23 24 24 23 20 16 13 12 12 11 12 13 14 14 15 16
42 45 48 48 45 41 39 37 32 26 22 22 22 19 12 6 6 5 3 3 3 3 3 4 5 5 4 3 3 3 3 3 3 4 4 5 5 6 5 4 4 4 4 4 4 5 5 6 6 6 6 6 6 6 7 8 11 12 11 11 14 15 15 15 15 15 15 16 17 18 19 19 18 18 17 17 17 14 12 12 11 12 14 16 16 16 16 18
35 38 41 42 40 38 35 29 25 23 22 21 16 9 5 4 5 4 2 3 3 3 3 3 4 4 4 3 3 3 3 3 3 3 3 4 5 6 6 5 4 4 4 5 5 6 6 6 7 7 7 7 7 7 7 8 9 10 9 10 11 13 13 14 13 14 14 15 16 16 16 16 15 14 15 16 15 13 13 12 13 15 17 18 18 17 17 20
26 29 30 30 29 27 25 23 21 20 17 13 8 4 4 5 5 4 3 3 2 3 2 2 3 3 3 3 3 3 3 4 3 4 3 4 4 5 5 4 4 4 4 5 5 6 7 7 8 8 8 8 8 8 8 9 10 10 10 10 10 11 12 13 14 14 14 15 15 15 15 16 15 15 17 17 15 15 15 15 17 19 20 20 20 19 19 20
16 21 24 23 20 18 17 17 15 12 9 6 4 3 4 4 4 4 4 4 3 3 3 3 3 3 3 3 3 3 3 4 4 4 3 4 4 3 4 3 4 4 5 6 6 7 7 8 8 8 9 8 8 9 9 9 10 10 11 11 12 12 12 13 14 13 13 14 14 14 14 14 15 16 17 16 15 16 16 18 20 21 20 19 19 20 20 21
9 11 15 15 12 10 9 8 7 6 5 5 4 4 4 4 5 4 4 4 4 4 4 4 4 4 4 4 3 3 4 4 4 4 4 3 3 3 3 3 3 4 5 5 6 7 8 8 9 9 9 9 9 9 9 10 11 11 12 12 13 13 13 13 13 13 12 13 13 12 14 15 15 15 14 14 16 17 18 21 23 22 21 19 20 21 22 23
6 6 6 7 6 5 4 4 4 4 5 5 5 5 6 6 6 6 5 5 5 5 5 5 5 5 5 6 6 5 5 4 4 4 4 4 4 5 4 4 4 4 4 5 6 7 9 9 9 10 10 10 10 10 11 12 13 14 14 15 15 14 15 14 13 13 13 14 15 15 16 17 17 16 17 18 19 20 21 23 24 24 25 24 23 23 25 26
7 6 5 6 5 4 4 4 4 4 4 5 5 6 6 7 7 7 6 6 6 6 6 6 6 6 6 7 8 7 6 5 5 5 5 6 6 6 6 5 5 5 5 6 7 8 9 9 10 10 10 10 10 10 11 13 13 14 14 13 13 12 13 13 13 15 17 19 22 22 21 20 20 21 22 23 23 23 23 23 24 25 26 27 27 25 26 27
15 9 6 6 5 5 4 4 4 4 4 4 5 5 5 6 6 7 7 7 6 6 6 6 5 5 5 7 8 8 8 7 7 7 8 8 8 8 7 7 7 7 7 7 8 9 9 10 10 11 11 11 11 11 11 12 11 12 12 11 11 11 12 13 14 16 20 23 26 26 24 24 23 25 26 26 26 25 24 24 24 25 26 27 29 29 27 26
24 12 7 8 7 8 7 7 7 6 6 5 5 5 4 4 5 5 6 6 6 6 6 6 5 5 5 7 9 9 9 9 9 10 10 9 9 8 7 7 8 9 9 9 9 9 10 10 11 11 11 11 11 11 12 12 12 12 12 12 12 12 14 16 16 18 22 26 27 26 25 26 25 26 26 27 28 27 27 27 27 27 26 27 30 31 30 29
28 14 12 15 14 13 13 13 11 9 9 9 10 9 7 5 4 4 4 5 5 6 6 6 6 5 6 7 9 10 10 10 10 9 8 8 8 8 7 7 8 9 9 9 10 10 10 11 11 12 11 12 12 12 13 12 12 12 12 13 13 14 16 19 20 22 26 29 30 28 28 28 26 25 25 25 26 26 26 27 27 28 29 29 30 30 29 29
28 17 20 24 19 16 16 17 16 14 13 14 14 13 11 8 6 5 5 4 4 5 5 5 6 5 6 8 9 10 10 9 8 7 7 7 8 8 8 8 8 9 9 10 10 10 10 11 11 12 11 12 12 12 14 14 13 13 14 15 16 17 19 22 24 26 29 33 33 31 30 30 28 27 26 26 25 26 27 28 30 30 30 29 28 28 29 31
24 20 25 25 17 15 17 19 19 18 18 19 18 16 14 11 9 8 6 5 4 5 5 5 5 4 6 9 8 8 8 7 7 7 8 8 9 9 9 9 9 9 10 10 10 11 11 11 11 12 12 12 12 14 16 17 15 15 16 17 18 19 19 22 27 32 34 35 33 29 29 29 30 31 32 34 33 33 33 33 32 31 31 31 31 33 36 39
19 21 21 17 15 17 21 23 24 22 23 24 23 19 16 12 10 10 8 7 5 5 5 4 4 5 6 7 7 9 9 10 10 11 11 11 11 12 11 11 11 10 11 11 11 11 11 12 11 11 11 12 14 17 18 19 19 19 20 20 20 21 22 25 30 34 34 32 30 28 29 32 35 38 40 41 40 39 37 36 35 35 36 38 40 42 45 49
16 18 17 18 23 26 27 29 29 26 25 27 27 22 15 11 10 10 9 8 6 6 5 4 5 7 9 10 11 12 12 12 12 11 11 12 12 13 13 13 13 13 12 12 12 12 12 13 12 11 13 15 18 21 20 21 23 24 25 25 27 29 31 33 34 33 30 29 31 32 35 40 42 44 45 45 45 43 43 42 42 42 44 45 48 51 53 54
14 14 18 26 29 30 30 31 32 29 27 28 29 21 14 12 10 9 9 8 7 6 5 6 9 12 13 13 14 13 13 12 11 11 10 10 11 12 13 13 14 15 15 15 15 14 14 14 12 13 15 16 18 20 21 24 27 28 29 29 31 32 32 33 31 30 28 29 36 39 42 47 48 48 49 50 51 51 51 51 50 49 50 53 56 57 57 57
17 14 22 30 29 30 31 30 32 30 27 30 28 20 14 12 9 7 7 7 7 5 7 12 14 14 14 15 15 13 11 11 11 10 9 10 12 12 10 10 12 15 16 16 16 16 15 14 14 15 16 17 18 21 24 27 29 29 29 29 29 28 28 31 33 33 31 34 41 44 45 51 53 55 56 57 57 56 56 55 55 56 56 57 59 59 58 58
23 20 25 30 29 30 29 29 31 28 28 31 26 18 15 10 6 6 6 7 6 7 12 15 14 13 15 15 14 12 10 9 8 8 9 12 13 11 10 11 12 14 14 15 17 16 16 16 18 20 21 22 22 23 25 26 26 25 26 27 27 26 26 30 36 37 37 40 44 44 47 55 62 63 62 63 61 58 58 59 57 58 58 58 58 58 57 56
25 24 27 29 31 29 27 27 29 27 30 30 22 17 14 8 5 5 6 6 6 11 15 14 12 13 16 15 13 11 9 7 8 9 10 12 12 12 13 14 14 14 14 15 16 16 16 17 18 19 19 20 21 22 25 25 26 26 26 26 26 26 27 30 35 38 41 45 44 42 48 61 71 69 67 66 65 63 61 61 60 58 57 56 55 54 53 53
25 26 27 30 32 27 25 26 27 28 31 27 19 16 11 5 5 5 5 6 9 14 15 13 13 14 16 14 11 10 7 7 10 10 11 12 13 15 15 15 14 14 14 14 15 15 15 16 17 18 19 22 24 25 26 27 28 27 26 27 26 28 30 32 36 39 44 46 42 39 47 67 76 69 66 67 65 65 62 61 61 58 57 55 54 52 51 51
25 26 28 31 30 25 23 26 27 30 29 22 17 14 7 4 7 6 6 9 12 16 15 14 16 15 14 12 9 8 7 9 11 10 13 14 14 15 14 14 14 15 15 15 15 15 16 18 19 21 22 24 25 26 27 28 29 28 27 28 29 31 32 33 35 37 40 40 38 38 45 68 79 67 62 64 61 62 59 58 58 56 55 53 51 52 50 50
28 26 27 30 28 23 23 26 29 30 25 18 15 9 5 7 7 6 8 12 15 18 17 16 17 15 14 11 8 7 8 11 11 12 14 14 13 13 13 14 14 15 15 15 17 17 18 20 20 22 23 23 24 25 28 30 30 30 28 29 30 29 29 30 33 35 37 35 37 42 42 58 75 66 60 61 59 61 59 57 58 55 54 52 50 51 50 50
31 25 27 29 25 22 25 28 30 27 21 15 10 6 7 9 7 8 12 14 15 19 19 17 17 15 12 8 6 7 10 12 12 13 13 11 11 11 11 12 13 14 14 16 19 17 19 21 20 21 20 20 22 24 28 30 30 30 29 29 27 27 29 30 31 32 36 39 42 45 42 55 74 65 59 66 62 63 63 60 59 56 55 55 53 54 54 54
31 28 28 25 21 23 28 30 28 23 16 11 7 7 9 8 7 10 14 14 13 17 19 17 15 12 7 5 6 9 12 13 13 12 10 9 9 8 10 11 12 14 14 15 19 20 21 21 18 19 20 23 26 28 31 29 28 28 27 28 26 27 25 22 27 33 41 49 47 43 42 60 85 71 58 72 70 66 67 63 62 61 59 61 61 62 62 62
32 29 25 20 23 28 31 30 25 17 11 7 7 8 8 8 9 13 15 13 13 16 17 14 11 7 4 5 9 13 15 13 11 9 9 8 8 8 9 12 14 15 15 18 21 22 21 17 17 22 28 32 32 32 31 26 25 24 26 28 25 24 22 26 40 42 52 64 51 44 45 57 84 75 58 71 74 68 69 65 65 67 67 69 69 71 71 71
28 23 21 23 29 33 32 27 18 11 7 6 7 7 8 7 9 13 15 13 14 15 12 9 6 4 4 6 10 14 14 11 8 8 8 8 9 9 9 13 16 15 17 21 21 19 17 15 19 28 35 35 31 30 28 23 24 26 29 28 23 24 24 34 50 48 60 75 55 49 52 51 72 77 66 75 79 76 74 69 70 72 74 76 76 78 79 78
23 25 28 30 33 34 30 19 10 7 6 6 6 6 6 7 9 13 14 13 12 10 7 5 4 4 6 8 10 11 10 8 8 8 9 8 9 10 13 18 19 18 19 20 17 15 14 16 24 33 36 34 30 29 25 24 29 30 29 25 27 39 36 39 57 55 57 65 53 52 55 54 71 80 78 86 89 88 83 75 77 78 79 81 81 83 84 83
30 33 33 34 35 30 19 8 5 5 4 4 4 4 5 8 10 12 12 11 9 6 5 5 4 5 8 9 10 9 8 9 10 9 9 10 11 15 21 24 23 23 23 20 17 15 14 19 27 32 33 30 28 26 24 27 29 26 28 27 31 46 48 57 73 59 43 46 50 53 53 60 80 85 86 95 95 95 91 83 84 85 86 86 85 87 87 86
35 34 33 33 29 16 6 4 4 3 3 3 3 4 5 7 10 11 10 8 6 5 5 4 5 8 9 10 9 8 9 11 11 11 11 12 15 21 27 27 25 26 24 19 18 18 20 22 23 26 29 27 25 26 27 28 26 25 32 35 34 35 37 53 65 49 39 46 47 48 53 67 83 84 88 96 96 99 98 92 92 90 89 90 88 89 90 90
35 33 31 25 14 4 3 3 3 2 3 3 3 3 4 7 10 9 7 6 5 5 5 6 8 9 10 10 9 10 12 12 12 13 12 13 19 27 29 27 26 26 22 18 17 21 24 23 20 23 25 24 26 31 31 28 27 32 36 36 38 38 34 44 51 44 48 58 54 56 70 81 85 82 86 95 97 99 100 98 97 94 92 92 91 92 92 92
33 27 21 11 3 2 4 3 2 3 3 3 3 3 5 9 10 7 5 5 6 6 7 8 10 11 11 11 11 12 13 13 13 13 14 18 24 29 28 25 26 24 19 19 22 25 27 23 22 24 24 27 34 36 31 29 31 36 38 38 41 43 42 45 48 47 56 65 61 66 85 95 93 89 87 93 96 96 98 98 96 95 94 94 94 94 94 92
23 16 9 3 2 3 3 3 3 3 3 3 3 4 7 9 7 6 5 5 7 9 10 10 12 13 12 12 13 13 13 13 14 14 18 22 25 27 26 24 25 22 19 23 26 29 32 28 23 24 27 33 37 34 31 32 35 37 40 44 43 43 46 46 48 55 66 74 70 72 88 95 93 89 84 89 97 96 96 97 96 96 96 95 96 94 92 89
10 6 3 2 3 3 3 4 4 4 4 4 3 5 8 7 6 6 6 8 10 11 12 12 13 14 14 14 14 13 13 14 14 17 21 22 23 26 27 25 25 24 23 27 29 31 37 35 26 25 30 34 33 32 33 34 36 40 43 46 45 46 48 46 48 56 65 78 82 81 88 90 84 84 84 87 95 96 95 97 97 96 96 95 94 91 89 86
4 3 2 3 3 3 5 5 5 4 4 5 6 7 7 7 7 8 10 12 13 13 14 14 14 14 15 15 14 14 16 16 17 20 21 21 24 27 28 26 27 28 28 30 31 32 38 42 35 28 31 34 32 32 35 35 38 42 45 47 47 49 51 49 49 51 58 77 86 84 90 91 85 88 92 91 92 94 95 96 96 96 95 93 91 88 85 81
2 2 3 4 4 6 8 7 6 5 7 10 10 9 9 10 11 12 13 14 14 14 15 15 15 16 16 15 15 18 21 20 20 22 21 22 25 27 28 27 27 30 30 30 31 32 37 43 39 30 29 33 34 34 37 41 45 46 47 48 49 51 53 53 52 49 55 76 88 89 91 88 83 87 93 96 95 94 95 95 95 96 93 90 88 83 77 70
3 5 6 7 8 10 10 8 8 9 12 14 12 12 12 13 14 15 15 15 15 15 16 15 16 16 16 16 19 23 24 22 22 23 23 24 26 27 28 27 26 28 29 29 30 33 38 44 42 35 32 35 36 38 42 48 52 52 52 54 56 57 56 61 65 58 56 70 80 88 92 86 80 81 85 91 94 93 95 96 95 93 89 86 80 71 63 56
8 9 10 10 11 12 11 11 12 13 15 14 13 14 14 15 16 16 16 16 16 16 16 16 16 17 18 20 23 25 24 22 23 24 24 25 26 27 27 27 28 29 30 31 33 37 40 44 44 39 37 39 41 44 49 53 55 55 56 57 61 62 60 66 74 67 63 67 67 77 91 86 80 83 85 89 91 91 92 90 88 86 81 74 66 57 50 43
11 12 12 13 13 13 13 13 14 14 15 14 14 15 15 16 16 16 17 17 16 16 16 16 17 20 22 24 25 25 24 24 24 24 26 26 26 26 27 29 31 32 33 35 37 40 42 43 43 40 38 39 43 49 53 54 54 54 55 56 60 67 65 65 70 67 68 69 66 77 92 85 81 88 89 87 87 87 87 85 83 79 69 60 53 47 40 34
12 13 13 13 13 14 14 14 15 15 15 15 15 16 16 16 17 17 18 17 16 18 18 18 21 23 25 26 26 26 25 26 26 26 27 27 26 28 30 32 35 35 37 39 40 42 42 43 46 49 50 50 51 54 53 52 54 57 59 61 64 69 69 67 66 66 70 73 75 86 95 87 83 86 83 82 84 85 84 81 75 67 57 49 45 39 34 31
12 13 13 13 13 14 14 14 15 15 15 15 16 16 17 18 19 19 19 18 18 20 20 21 24 26 27 27 27 27 27 27 27 28 29 29 29 31 34 37 38 38 40 42 41 42 43 45 48 52 58 61 61 61 61 60 62 64 67 68 66 68 69 66 66 67 72 76 76 80 84 81 80 81 81 83 80 75 71 65 60 57 50 44 39 35 31 28
13 13 13 14 14 14 14 15 15 16 16 16 17 18 20 21 21 21 21 19 20 23 24 24 26 27 27 28 28 28 28 29 29 30 31 32 33 35 39 41 43 44 45 43 42 44 46 47 50 54 58 60 61 63 67 68 69 68 68 67 66 66 66 65 67 69 73 75 72 70 74 76 78 81 80 74 66 59 56 53 51 49 44 38 35 31 28 26
14 14 14 14 15 15 15 16 17 17 18 18 19 21 23 24 24 23 22 21 23 26 26 26 28 28 28 29 29 29 30 31 31 32 33 34 37 40 43 45 49 49 46 44 46 48 48 50 55 58 58 60 62 63 65 66 67 66 66 66 66 67 67 68 70 71 76 80 76 72 76 80 80 78 69 59 53 52 52 52 50 46 41 35 31 27 25 23
14 15 16 15 16 17 17 18 19 19 20 21 22 24 25 26 26 24 23 24 26 28 28 27 29 29 30 31 31 31 32 33 33 33 34 36 39 44 46 49 52 49 46 48 50 50 51 53 54 54 55 60 64 65 66 67 65 64 67 69 69 69 70 71 73 75 80 84 82 79 81 82 74 63 55 52 55 56 55 55 53 46 38 31 27 26 23 19
14 16 17 17 18 19 20 21 21 21 22 23 24 25 26 27 27 25 25 27 29 29 29 29 30 31 32 33 33 34 35 36 35 35 36 39 42 45 48 50 50 48 50 53 53 52 50 47 47 49 51 56 62 66 66 64 64 67 69 69 71 73 74 74 76 79 78 77 78 78 74 67 57 50 52 59 62 61 58 55 48 39 32 28 26 23 18 15
13 16 17 18 19 20 22 23 22 22 23 24 26 26 27 28 27 26 27 29 30 30 31 31 32 33 34 34 36 37 38 38 38 38 41 44 47 49 50 50 50 52 55 54 52 47 37 34 40 42 38 44 55 61 62 61 63 66 69 72 76 75 72 71 72 74 72 69 68 64 56 49 48 52 59 64 64 60 55 47 38 31 28 27 23 18 14 14
12 15 16 18 20 21 22 23 23 23 24 25 26 27 28 29 28 27 28 30 31 32 32 33 34 35 35 36 37 39 39 38 38 41 45 48 51 53 52 51 53 57 57 53 46 35 23 22 30 30 27 34 47 54 56 55 57 63 69 71 68 64 63 65 68 73 74 66 56 50 47 48 54 60 63 63 62 58 49 38 31 29 27 23 17 14 13 11
11 14 15 17 20 21 22 24 24 24 24 26 28 28 29 30 29 28 28 31 32 33 34 35 35 36 35 36 38 40 39 38 38 42 48 52 55 56 55 54 57 60 57 49 38 25 17 18 21 22 22 27 37 44 42 43 55 63 62 56 54 58 60 58 63 73 72 59 48 47 51 57 63 65 62 59 56 50 40 30 28 27 22 17 14 13 10 8
Wind_Speed
13 13 12 11 9 8 8 8 8 8 9 9 9 9 9 10 11 11 12 12 12 10 10 9 9 10 10 10 9 9 9 9 8 7 7 8 8 8 8 9 9 9 10 11 12 12 12 12 11 11 11 12 12 13 13 14 16 18 19 22 24 25 23 20 19 20 19 18 16 17 18 19 18 17 18 19 19 19 19 19 20 21 18 16 17 18 19 19
15 14 13 12 10 9 9 8 9 9 9 9 9 10 11 11 12 12 12 12 11 11 10 10 9 9 9 9 8 7 8 8 8 8 8 8 8 9 9 10 10 10 10 12 13 13 13 12 12 12 12 12 13 14 14 15 17 18 19 22 24 23 21 18 18 19 19 19 19 19 19 19 18 18 19 20 19 19 20 20 21 19 15 15 17 19 20 19
15 14 14 13 11 10 9 9 9 9 9 10 10 11 12 12 13 13 13 12 11 10 10 10 9 9 9 8 7 7 7 8 8 8 9 9 9 10 10 10 10 10 11 12 13 13 13 13 12 12 12 13 13 14 16 17 17 18 21 23 23 22 21 20 20 20 20 21 21 22 22 21 20 20 21 21 21 22 22 21 20 17 14 17 18 19 20 20
14 14 14 13 12 10 9 9 9 9 10 10 11 12 13 13 14 13 13 12 11 10 10 9 9 9 8 8 7 7 7 8 9 9 9 9 10 10 10 10 10 11 11 12 12 13 13 13 13 12 13 14 14 15 17 18 19 20 22 22 21 22 22 21 21 21 21 22 22 23 23 23 22 23 24 24 25 25 23 22 20 16 16 18 19 19 20 19
13 13 13 12 10 9 7 7 8 9 10 11 12 13 13 14 14 13 12 11 10 10 10 9 9 8 8 7 7 7 7 8 8 8 9 10 11 11 12 12 12 12 12 12 12 12 12 12 12 12 13 14 15 16 17 19 21 22 22 21 21 22 21 20 21 22 21 22 22 23 23 24 24 25 26 26 27 26 23 21 18 16 18 18 19 19 18 15
10 9 9 7 6 5 5 6 7 9 11 12 13 14 14 14 13 13 12 11 10 10 10 9 9 8 8 7 7 8 8 8 8 9 10 11 12 13 13 13 13 13 13 13 13 12 12 12 12 13 14 14 15 16 18 19 22 23 22 20 21 21 21 20 21 22 22 22 22 23 24 24 25 26 27 27 25 23 23 21 17 18 19 17 15 14 12 10
9 8 6 4 2 2 4 5 8 10 11 12 13 14 15 14 12 12 11 11 10 10 10 9 9 9 8 8 8 9 9 9 11 11 11 12 12 13 13 14 14 14 14 14 13 13 13 13 13 13 14 15 16 16 18 19 21 23 22 21 22 22 21 21 22 22 22 22 23 23 24 24 25 26 27 25 22 23 26 23 19 19 17 13 10 8 7 8
8 8 7 5 3 3 4 6 8 10 11 12 13 14 13 12 11 11 11 11 11 11 11 10 10 10 10 10 9 10 11 12 12 13 12 12 12 13 14 14 14 14 15 15 14 14 14 14 14 14 15 15 16 16 17 19 21 22 22 21 22 22 22 22 22 22 22 23 23 24 24 23 25 26 24 22 21 22 21 19 17 16 14 11 9 8 10 11
7 6 6 5 5 5 6 7 9 10 11 12 12 12 12 11 11 11 11 10 11 11 11 11 11 11 11 11 11 12 12 13 14 14 14 14 13 13 14 14 14 14 15 15 15 15 15 14 14 15 15 15 16 16 17 19 20 21 22 22 22 22 22 22 22 22 22 23 24 24 23 24 25 24 22 21 20 17 13 13 14 13 12 12 10 10 12 14
6 6 6 6 7 7 8 8 9 9 10 10 11 11 10 10 10 10 10 10 10 11 11 11 11 11 12 12 12 13 13 15 15 15 15 15 14 14 14 15 15 15 14 15 15 16 15 15 14 15 15 15 16 16 17 19 20 21 22 22 23 23 23 23 22 22 22 23 23 24 24 23 23 21 20 20 19 18 16 14 13 11 11 12 12 12 14 16
7 6 7 7 8 8 8 8 9 9 9 9 9 9 9 9 9 10 10 10 10 11 11 10 11 11 11 11 12 13 13 15 15 15 16 16 15 14 15 15 16 15 15 15 15 15 15 15 15 15 15 16 16 16 17 19 21 21 23 24 24 24 25 24 23 22 22 23 24 23 24 23 22 22 22 21 19 19 18 15 11 10 10 11 13 14 15 16
7 6 7 7 7 7 7 8 8 9 9 9 9 9 9 9 10 10 10 9 10 11 11 10 10 11 11 12 13 13 13 15 15 15 15 15 15 15 15 15 16 16 16 16 15 15 16 15 15 15 15 16 16 16 16 18 18 19 21 23 23 22 23 23 22 21 20 20 19 19 19 18 17 17 18 17 16 16 16 14 13 12 10 11 12 14 15 17
8 7 7 7 7 8 8 8 9 9 9 10 10 10 10 11 11 11 11 11 11 11 11 10 11 11 11 12 13 13 14 14 14 15 15 14 14 14 14 14 15 16 16 16 15 16 16 16 16 16 16 18 18 17 18 19 19 20 22 24 25 24 22 19 17 15 14 13 11 11 9 8 9 9 11 13 15 17 17 17 17 16 14 14 15 16 17 19
9 9 8 8 8 8 9 9 10 10 11 11 11 12 12 12 12 12 13 13 13 13 13 12 12 13 13 13 13 13 13 13 13 13 13 13 12 13 13 14 14 15 16 16 16 16 16 17 17 16 17 18 18 18 20 21 22 22 23 25 25 23 18 14 13 12 11 10 8 8 4 5 9 11 11 12 14 15 17 18 19 19 20 22 22 21 21 22
8 8 8 9 9 9 10 10 11 12 12 12 13 13 13 14 14 14 14 14 15 16 15 15 15 15 15 14 13 13 13 12 12 12 13 13 13 13 14 14 14 15 15 15 15 16 16 17 17 17 17 18 19 19 20 21 22 22 22 23 22 20 16 14 14 12 10 8 7 7 4 6 12 13 12 12 13 14 16 19 21 24 27 27 26 24 25 26
7 7 8 9 10 10 11 12 12 13 13 14 14 15 15 15 15 15 15 15 16 16 17 17 16 16 15 14 13 12 12 12 13 15 16 15 15 15 14 14 14 15 16 15 15 16 16 17 17 17 18 18 18 18 19 21 22 21 21 22 20 19 16 13 11 10 9 9 9 9 9 12 17 20 20 20 20 21 22 24 27 28 28 27 26 26 27 27
6 6 7 8 9 10 11 12 13 14 14 15 16 16 16 16 15 15 15 16 16 17 18 17 16 16 15 13 12 12 13 14 17 18 17 16 16 15 15 15 15 14 15 16 16 16 16 17 17 18 18 18 18 18 18 20 20 19 19 19 18 17 16 13 11 12 13 12 13 15 15 18 20 22 24 24 26 26 26 26 26 25 25 25 26 26 26 26
5 5 7 8 9 10 11 12 13 14 15 16 16 17 17 17 16 16 16 16 16 17 18 17 16 16 13 12 14 14 14 16 16 16 15 15 15 15 15 15 15 15 15 15 16 16 17 17 17 18 19 18 17 17 18 18 18 18 19 20 20 20 20 16 14 14 15 15 17 19 18 18 20 21 22 22 23 23 22 22 21 21 21 21 21 21 21 22
5 5 6 7 8 10 12 13 14 15 16 17 18 18 18 18 17 16 16 16 17 17 18 17 17 15 13 13 14 13 12 12 13 13 13 14 14 14 14 14 15 16 15 15 15 16 17 17 18 19 19 17 16 16 18 19 20 21 22 23 23 24 21 17 15 16 16 17 18 18 16 15 16 17 17 17 17 18 18 17 17 16 16 16 17 17 18 19
5 5 6 7 9 11 13 14 15 16 17 18 19 20 20 19 18 16 15 16 17 17 18 18 16 14 11 11 10 10 9 10 11 11 12 13 13 13 13 13 13 15 15 15 15 16 17 18 18 18 17 16 16 17 19 20 21 22 22 23 23 23 20 15 15 17 17 16 16 15 12 11 11 12 13 12 13 15 13 12 13 13 14 14 15 15 16 17
7 6 6 7 10 12 13 15 16 16 17 19 20 21 21 20 19 17 17 17 17 18 18 16 13 10 8 8 8 9 9 11 12 12 13 14 13 12 12 13 13 14 14 14 15 16 17 19 18 17 17 17 18 19 20 21 21 21 20 21 21 20 19 16 15 16 16 15 13 12 11 8 7 8 8 8 10 10 8 9 11 13 14 14 14 15 15 15
8 7 7 9 11 13 14 15 16 17 18 19 21 22 22 21 20 19 19 17 17 18 17 12 8 7 7 7 8 10 11 13 13 14 15 14 12 12 14 15 15 14 14 15 16 16 18 19 16 16 17 17 17 17 18 19 20 20 20 21 20 18 16 14 11 10 12 12 11 12 10 6 4 5 5 7 8 8 9 11 13 13 14 14 14 14 14 14
9 9 9 10 12 14 15 16 17 18 19 21 22 23 23 22 20 19 19 18 18 17 13 8 7 7 7 8 9 11 13 15 16 16 16 14 13 15 16 16 15 14 14 15 16 17 18 16 14 14 16 16 17 18 18 19 20 20 19 19 18 16 13 11 8 8 10 10 11 12 9 5 5 6 7 8 9 11 12 13 14 14 14 14 14 14 13 13
11 11 11 12 13 14 16 17 18 18 20 22 23 23 23 22 20 19 18 18 17 13 7 5 7 8 8 10 11 13 16 18 17 15 14 13 14 16 15 14 14 14 14 15 15 17 17 17 17 18 18 19 19 18 17 17 17 17 17 17 17 15 13 11 10 10 10 11 14 13 7 5 7 8 10 11 11 12 13 14 14 14 14 14 14 14 13 14
11 12 12 13 14 15 17 18 19 20 21 22 23 24 23 22 20 19 19 18 13 7 5 6 8 8 9 12 14 16 19 18 16 14 14 14 14 13 13 13 14 14 14 15 15 17 17 17 18 17 16 16 15 15 15 16 17 17 15 15 14 11 10 9 9 9 9 11 16 14 6 4 9 11 11 13 14 14 14 14 15 14 14 14 13 14 14 14
12 12 13 13 15 16 17 18 20 21 22 23 24 23 22 21 19 18 18 15 8 4 5 7 8 9 12 14 16 19 18 15 15 14 13 13 13 13 13 14 14 14 14 14 15 15 15 14 14 14 14 14 15 16 16 16 16 16 14 13 11 9 8 9 10 10 9 10 12 14 11 5 11 15 14 16 16 16 16 15 16 15 14 14 14 15 15 15
13 13 14 14 15 17 18 19 21 22 24 24 23 22 21 19 18 18 16 9 4 3 6 8 8 10 14 16 18 19 15 14 14 13 12 13 14 15 14 14 15 15 15 15 14 13 13 14 14 15 15 15 16 16 15 14 14 13 12 10 10 10 11 12 12 12 13 13 11 14 16 9 11 18 17 18 18 17 17 17 16 16 15 15 16 16 16 16
13 14 14 14 15 16 18 20 22 23 24 24 23 21 19 18 17 16 10 3 3 6 7 9 10 12 16 18 19 17 14 13 12 12 14 16 16 15 15 15 15 15 15 15 15 15 14 14 14 16 16 17 17 15 14 12 11 11 10 9 11 13 13 14 15 16 16 15 13 16 20 9 7 19 20 18 19 17 17 17 17 17 17 16 17 16 16 16
14 14 14 14 15 17 19 21 23 24 24 23 21 19 17 17 16 14 6 0 4 8 8 10 11 15 17 18 17 15 13 13 12 14 16 16 16 15 15 15 15 15 15 15 14 13 12 13 15 16 16 15 14 11 10 9 9 10 10 11 12 14 15 17 18 17 13 10 11 16 23 12 3 19 25 18 19 19 18 18 17 18 18 17 17 16 16 16
13 13 14 15 16 18 21 23 24 24 23 21 19 17 16 15 14 9 1 1 7 8 8 11 14 17 18 16 14 12 12 12 14 15 15 15 15 15 15 14 14 13 12 11 9 9 12 15 15 14 12 10 8 7 7 8 10 11 11 11 13 16 18 17 14 10 5 5 7 10 22 17 4 16 26 19 18 20 20 20 19 19 18 18 17 16 16 16
13 13 14 16 18 21 23 24 24 23 21 19 17 16 15 14 12 4 1 5 10 8 9 13 15 17 16 14 12 11 11 13 14 14 14 15 15 15 15 12 12 12 9 8 8 11 14 14 12 10 8 7 6 7 8 11 12 10 10 13 15 14 11 8 5 3 3 3 3 6 17 16 5 12 24 21 19 20 21 21 20 19 19 18 17 17 16 17
12 13 15 18 20 23 24 24 23 21 19 17 16 15 15 12 7 2 3 9 9 9 13 15 16 16 15 14 13 12 13 14 15 14 15 16 16 16 14 12 13 12 9 10 13 14 12 10 10 8 7 8 8 10 12 12 10 9 12 14 11 6 3 3 2 3 4 3 1 6 11 9 3 11 23 23 21 21 22 23 21 19 19 19 18 17 17 18
14 16 18 20 22 23 23 22 21 19 17 16 15 14 13 8 3 4 8 9 9 12 15 16 16 16 14 13 12 13 14 14 14 15 16 17 16 15 13 12 14 12 11 15 17 14 11 9 9 8 8 10 12 14 13 10 9 13 15 11 4 1 3 3 3 2 4 3 4 5 5 5 3 9 19 23 22 23 23 23 21 19 18 19 19 19 19 20
16 18 20 22 23 22 21 19 18 17 16 16 14 13 11 6 4 7 10 10 10 13 15 15 15 14 13 12 12 14 15 15 15 16 16 15 14 13 11 11 13 12 13 15 14 13 10 6 7 10 11 14 16 14 11 11 14 15 11 6 4 3 2 3 3 2 3 2 4 5 3 4 6 9 16 21 22 23 23 22 21 19 18 19 20 21 21 23
18 20 21 22 22 20 18 17 16 16 16 14 13 12 9 5 6 9 10 11 12 13 14 15 14 12 11 11 12 15 16 15 15 16 15 14 13 11 10 13 13 12 15 14 13 13 8 6 10 14 15 16 14 10 9 13 13 9 7 6 7 7 5 5 5 5 5 4 3 5 2 4 9 11 15 19 20 21 20 21 21 20 19 19 21 22 24 25
20 21 21 21 19 17 16 16 16 16 14 12 12 11 9 6 7 10 11 12 13 14 14 13 12 11 10 11 12 14 15 14 15 15 14 13 11 10 12 14 13 13 16 15 14 10 7 10 14 15 15 13 9 8 12 15 11 8 9 9 8 8 8 8 7 5 3 2 3 5 4 5 9 10 15 19 19 20 20 19 20 20 19 19 21 24 26 29
20 20 20 18 17 16 16 16 17 16 13 11 12 11 8 7 9 10 10 11 13 14 14 13 12 11 11 12 13 14 14 14 14 14 12 11 10 11 14 14 12 15 17 16 14 11 11 16 16 14 12 9 8 11 15 14 12 11 10 8 9 8 7 6 4 3 2 1 3 4 5 9 10 8 14 21 21 19 19 19 19 20 20 21 23 26 29 33
19 18 17 16 16 16 16 16 16 14 11 11 12 10 8 8 9 9 10 11 12 13 13 12 12 11 12 14 14 14 14 14 13 13 11 10 11 13 14 12 13 17 17 16 16 14 14 16 16 14 10 7 10 14 14 13 12 12 10 9 9 6 4 4 2 2 2 1 3 2 4 8 13 11 12 19 23 22 21 20 20 22 23 24 26 30 34 37
17 17 16 16 16 16 16 15 14 11 10 11 11 9 8 8 9 9 10 11 11 11 11 11 11 11 11 13 13 14 15 14 13 12 11 12 13 14 13 12 16 18 17 18 18 16 14 11 11 13 10 10 14 15 14 15 12 9 7 6 6 3 4 6 5 4 2 2 3 2 1 4 12 16 13 15 21 23 23 22 23 24 25 27 30 33 37 41
16 17 16 16 16 15 15 13 11 10 10 11 10 8 8 8 9 9 10 11 11 11 11 11 11 11 11 12 12 13 14 13 13 13 12 13 15 14 13 15 18 19 18 19 18 16 13 8 11 16 15 15 16 15 15 14 9 6 4 5 7 7 7 9 9 8 5 2 1 1 2 2 9 15 16 16 18 21 23 23 24 25 27 30 33 37 41 45
16 16 15 14 14 13 13 11 10 10 10 10 9 8 8 8 9 10 10 10 10 11 11 10 10 11 11 11 11 12 14 13 13 14 13 13 15 14 15 18 20 19 19 20 17 14 11 9 15 20 19 17 17 17 13 8 5 5 6 9 11 12 11 7 5 5 4 3 2 2 3 5 7 10 14 16 18 19 21 21 22 25 29 33 38 42 44 46
15 14 13 13 13 12 12 10 10 11 10 9 8 8 8 8 9 9 10 10 10 10 10 9 10 10 10 10 10 12 14 12 13 15 13 14 16 16 18 20 20 20 20 19 15 12 11 12 15 18 17 15 15 13 8 4 4 6 9 13 15 14 11 4 3 5 7 7 7 4 3 6 8 9 9 11 14 16 18 21 24 28 33 38 41 43 44 45
14 13 12 13 13 12 11 10 11 11 9 8 8 8 8 9 9 10 10 10 10 10 9 9 9 9 9 10 10 13 15 13 13 15 14 14 17 18 19 20 20 21 21 17 13 13 13 12 14 17 16 12 9 6 4 3 6 10 14 18 17 13 10 7 7 10 10 8 7 3 2 4 5 7 9 11 14 17 21 24 27 32 36 39 41 41 43 46
13 12 12 12 12 11 10 10 10 10 9 8 8 8 9 9 9 10 10 10 10 10 9 9 9 8 9 11 12 14 15 14 14 15 14 16 18 19 19 20 21 21 19 15 13 14 13 10 12 14 11 8 5 3 4 8 12 17 19 19 17 13 11 8 8 9 7 5 4 1 2 4 7 11 14 17 20 23 25 28 31 35 38 39 40 43 46 47
13 12 12 12 10 10 11 10 9 9 9 8 8 9 9 10 10 10 9 9 10 10 9 8 8 9 10 12 13 13 15 16 15 14 15 17 19 19 19 21 22 19 16 13 13 14 12 11 11 8 3 4 5 6 10 16 19 19 17 16 15 13 11 9 9 8 4 4 6 5 6 10 13 16 20 24 27 28 30 32 34 34 37 40 43 46 47 47
13 12 12 12 9 10 11 10 10 10 9 9 9 9 10 10 11 10 9 9 9 9 9 8 8 9 11 12 13 13 15 17 16 15 17 19 19 19 20 21 20 16 13 12 13 12 12 12 11 7 5 8 11 13 14 15 15 15 15 15 14 13 12 11 10 7 5 8 11 9 11 15 17 21 26 29 31 32 34 35 34 35 40 43 45 46 47 48
13 12 12 11 9 10 11 11 10 10 10 10 10 10 10 10 11 10 9 9 9 9 9 8 9 11 12 14 15 15 16 17 17 18 20 21 20 20 21 19 15 11 11 12 12 13 14 13 10 10 12 13 14 14 12 11 13 14 14 14 14 13 13 11 8 6 6 8 9 10 13 18 22 27 31 32 34 35 35 34 36 41 45 47 47 47 48 49
13 12 12 11 10 10 10 11 10 10 10 10 10 10 10 10 11 10 9 9 9 9 9 9 10 13 14 16 16 16 18 18 19 21 22 22 21 20 19 16 10 9 11 12 14 15 14 12 12 13 14 13 12 11 11 12 15 15 14 14 14 13 13 12 9 7 7 8 10 14 19 23 28 32 33 35 35 34 34 37 41 44 46 47 47 48 49 50
13 12 12 11 10 10 10 11 11 10 10 10 10 9 10 10 10 10 9 8 8 9 10 10 12 15 16 17 17 18 19 21 22 23 23 22 21 20 17 12 8 10 13 14 16 17 14 13 13 14 14 13 12 10 12 15 16 15 15 14 14 14 13 12 10 9 10 12 15 20 24 27 31 33 34 34 33 33 36 40 43 45 46 47 48 49 50 51
13 12 11 11 10 10 10 11 11 10 10 10 10 10 10 10 10 9 9 8 8 9 11 12 14 16 18 18 18 18 20 21 22 22 21 20 19 17 13 10 9 12 14 16 17 16 15 14 12 13 13 12 10 11 14 16 16 16 15 13 13 14 14 12 12 13 15 17 21 25 29 31 32 33 32 31 32 36 41 44 45 46 47 48 49 50 50 51
13 12 11 10 10 10 10 11 11 10 10 10 10 10 10 10 10 9 9 9 10 10 12 14 16 18 19 19 18 18 20 21 21 20 19 17 16 13 10 10 11 14 17 18 17 16 16 14 12 13 13 11 11 13 15 17 18 16 14 13 14 15 14 14 15 17 20 24 27 30 32 34 33 32 31 32 37 42 46 46 47 48 48 49 49 50 50 51
13 12 12 11 10 10 11 11 11 10 10 10 11 10 10 10 10 9 9 10 11 12 13 16 17 18 19 18 17 18 20 21 20 18 17 15 14 12 10 10 13 16 18 18 17 16 16 15 14 15 14 13 13 14 17 18 15 11 10 12 15 15 17 18 18 19 23 27 31 33 34 34 32 31 34 39 44 46 47 47 48 48 49 49 49 50 51 52
Wind_Direction
318 314 310 307 303 303 305 306 306 308 311 312 315 318 320 321 322 324 324 323 322 316 309 300 293 289 287 287 287 286 284 282 278 271 269 268 268 269 272 272 272 274 276 277 275 273 273 271 271 270 268 267 263 261 256 246 239 234 233 237 244 251 256 265 268 267 269 272 270 262 260 265 272 274 269 266 266 270 274 279 288 298 304 299 293 292 292 292
315 312 307 302 297 294 295 299 301 305 309 312 315 319 322 324 324 324 324 322 319 314 309 303 296 288 284 284 282 277 275 275 273 270 268 268 267 267 269 271 272 273 274 274 271 269 268 268 268 267 267 266 263 261 257 250 244 241 240 245 254 259 264 271 272 271 271 270 269 267 266 268 271 270 266 265 269 276 280 288 299 304 303 294 291 293 294 293
312 309 304 299 294 290 289 291 297 302 308 312 316 322 325 326 326 325 323 320 317 313 309 306 302 295 289 284 277 267 264 267 269 269 269 266 265 264 266 268 271 272 271 268 267 266 264 264 264 264 265 264 260 257 254 251 247 247 248 253 262 266 266 269 270 271 271 269 269 267 266 266 268 268 267 269 273 278 286 297 303 302 295 289 289 291 292 294
312 308 304 300 296 292 289 291 297 303 308 313 318 322 325 326 325 324 322 319 316 314 309 307 304 300 296 290 281 271 266 271 274 274 271 267 264 266 269 272 273 273 270 266 264 264 263 261 260 261 261 259 256 253 252 251 248 248 251 258 266 268 268 269 268 270 270 270 270 268 267 265 266 267 271 276 278 282 292 300 300 294 285 283 285 289 292 295
315 309 304 301 299 295 292 293 299 305 310 315 319 321 323 323 323 322 322 320 317 316 313 308 305 304 300 293 284 277 277 284 284 280 275 272 270 272 275 279 281 280 276 271 267 266 265 262 260 259 258 257 254 252 252 251 250 251 255 262 265 267 268 267 266 267 269 270 270 269 269 267 266 269 274 280 284 290 295 295 291 282 276 277 282 287 291 293
332 325 317 311 307 298 294 298 303 310 315 318 318 319 319 319 320 321 323 322 318 318 318 314 311 309 304 296 288 284 286 288 285 281 280 279 276 275 278 283 285 285 283 277 272 268 265 264 261 259 259 259 257 256 256 253 252 254 258 261 261 264 267 265 264 264 265 266 268 269 269 269 271 273 277 283 290 293 289 286 282 275 273 277 281 284 284 279
3 2 3 1 349 313 300 305 310 314 317 317 316 316 316 317 318 321 325 324 319 319 321 320 316 312 305 298 293 289 288 286 285 285 285 284 280 278 279 282 284 284 282 277 273 269 265 263 261 260 260 260 260 260 260 257 253 254 259 261 261 263 264 264 263 262 263 264 266 267 269 272 274 276 279 284 290 286 283 282 277 271 271 273 272 266 253 244
13 16 19 20 8 334 316 314 314 314 314 313 313 315 316 316 317 321 325 323 319 318 321 322 318 315 308 302 298 293 289 287 288 288 287 286 283 281 279 279 279 277 276 274 272 269 266 264 263 263 261 261 263 263 262 260 258 258 261 263 263 264 265 265 265 264 264 265 266 267 270 274 275 277 281 285 285 283 284 280 268 263 266 267 262 245 228 230
351 355 358 353 341 326 316 312 311 310 310 311 313 316 317 317 318 319 320 318 314 313 315 317 316 314 309 305 301 295 293 290 289 289 288 287 284 283 281 278 275 273 273 273 273 270 268 265 263 263 264 265 265 265 264 262 261 262 265 266 267 268 269 269 268 268 268 268 270 272 276 278 278 280 284 285 280 275 278 273 261 258 262 263 262 252 237 237
330 325 324 323 318 312 308 305 306 307 309 312 315 318 319 319 320 317 315 312 306 305 307 308 308 307 304 302 298 295 294 291 290 291 290 289 288 285 283 281 278 276 274 272 273 272 270 268 266 265 267 267 265 265 266 264 264 266 268 270 271 273 273 273 272 271 271 273 275 278 281 281 281 283 282 279 273 267 265 264 259 257 260 261 262 256 245 242
335 325 319 316 315 312 309 308 308 310 311 314 316 319 322 323 323 321 317 312 306 301 299 299 299 298 298 297 295 293 292 289 290 292 290 290 289 286 285 283 281 280 277 274 272 272 272 271 269 268 268 267 267 269 270 269 268 270 272 272 274 276 276 276 276 276 276 279 280 281 281 281 281 278 274 270 268 263 253 249 252 257 263 267 264 255 245 246
350 341 333 329 329 328 326 324 319 317 315 315 317 318 321 323 324 324 321 318 312 305 300 297 294 293 295 297 295 293 290 288 290 289 288 289 289 289 286 283 282 280 279 277 274 273 274 274 273 271 270 271 271 273 273 272 273 274 276 278 278 277 279 282 284 284 283 283 286 284 281 280 277 273 270 263 255 249 240 237 245 252 263 270 264 252 248 252
8 1 354 348 345 344 340 337 331 328 325 323 321 319 319 319 319 320 319 318 318 315 310 305 302 300 300 300 298 295 291 289 289 287 287 289 289 289 287 284 282 280 279 278 277 276 275 276 276 274 274 274 275 275 273 274 276 278 280 283 283 283 286 288 287 287 287 290 296 295 283 264 261 271 274 259 243 238 239 241 245 250 264 274 268 256 252 257
11 7 4 0 357 354 351 347 343 340 336 333 329 325 323 320 318 317 315 315 318 318 315 312 311 309 307 305 300 296 293 291 289 288 288 288 288 290 289 287 284 281 280 280 280 279 279 278 277 277 277 277 279 277 276 279 279 281 282 282 283 287 290 289 288 289 289 294 308 315 304 241 256 273 271 257 245 239 240 244 247 253 265 274 272 260 254 258
357 359 4 7 8 5 1 357 353 349 344 341 338 334 329 325 321 318 315 314 314 314 312 312 313 312 311 308 303 298 295 292 289 290 291 290 290 291 290 287 285 284 282 282 282 281 280 279 279 280 279 278 279 279 280 282 282 282 280 279 282 287 288 288 289 288 287 294 310 321 311 254 261 272 270 262 257 250 247 252 258 263 270 273 270 262 259 261
343 352 5 9 10 8 4 1 357 353 348 345 342 340 336 330 324 320 318 315 312 310 310 311 312 312 311 307 303 300 299 296 292 294 296 294 293 294 292 288 285 283 282 282 281 280 280 280 281 280 279 279 279 283 285 281 278 278 278 278 282 285 287 288 285 285 289 295 300 299 287 273 272 276 277 274 270 267 266 269 272 273 274 273 270 268 266 263
332 348 359 1 2 3 1 359 356 353 349 345 342 340 338 333 327 322 320 317 313 312 311 311 312 312 310 305 301 301 300 296 294 295 297 296 295 296 295 292 289 285 282 281 280 280 280 279 279 278 278 279 281 285 280 274 276 280 280 280 282 284 286 286 283 283 284 287 292 292 287 281 279 280 279 278 277 276 276 277 277 277 276 274 272 270 265 257
324 340 349 350 355 359 359 358 355 353 349 345 341 338 336 333 328 324 322 318 315 315 314 312 312 311 308 302 300 301 299 296 296 298 299 298 297 295 294 292 291 288 284 283 282 282 280 279 279 277 278 282 288 287 276 274 281 282 279 281 283 284 285 287 287 281 280 285 289 289 284 277 275 277 278 279 280 280 282 282 282 281 278 274 268 262 254 244
318 331 340 347 355 357 356 355 353 351 348 345 342 338 336 333 328 324 321 319 317 318 317 315 313 310 306 302 303 305 304 302 303 305 306 305 302 298 294 290 289 288 287 286 284 282 280 279 278 277 282 290 293 286 275 275 277 275 277 280 282 283 285 288 287 282 284 288 286 282 275 266 264 269 275 280 282 285 288 286 283 279 271 263 255 246 236 229
317 322 335 345 351 349 348 348 346 346 345 344 342 339 336 333 329 324 322 321 319 318 318 316 314 311 310 309 310 314 315 312 312 311 312 310 306 303 299 295 292 289 287 287 283 282 280 278 278 283 289 288 282 275 273 272 273 274 277 279 280 282 285 287 285 286 287 284 279 275 265 255 256 263 274 281 286 291 289 280 271 260 253 246 236 227 221 222
320 317 326 336 338 339 340 340 340 340 341 341 340 338 336 333 330 326 324 323 320 319 319 318 316 315 318 318 317 319 316 314 313 311 312 311 307 305 305 302 297 291 289 287 283 282 279 278 283 289 285 280 275 274 274 273 273 274 276 279 280 282 287 290 285 283 282 273 261 257 252 246 253 261 270 272 277 280 264 250 246 238 236 228 219 216 217 219
317 315 319 324 328 333 335 335 336 336 337 338 338 336 335 333 330 327 324 323 322 320 320 320 319 319 321 321 318 318 316 313 311 308 308 307 302 303 307 304 297 292 290 287 284 283 281 283 288 287 282 280 278 275 274 273 274 275 278 279 280 283 290 293 286 275 270 259 242 242 244 235 231 237 238 242 246 241 227 227 226 224 224 217 211 211 213 214
309 312 316 318 324 329 332 334 333 333 336 337 335 334 333 331 328 325 323 322 321 319 318 318 320 320 317 316 315 316 320 318 313 309 306 302 297 301 306 303 297 294 291 287 285 283 283 287 287 281 281 282 279 278 277 277 277 277 278 279 283 287 287 283 271 257 252 248 245 244 235 192 170 191 202 211 220 219 218 220 217 214 216 214 211 210 211 210
303 309 312 317 323 327 331 332 330 333 336 334 332 331 330 328 325 323 321 320 320 316 312 312 317 321 318 315 315 316 321 320 316 314 309 303 302 304 307 304 300 298 294 289 285 283 284 285 283 281 282 281 281 281 281 281 279 279 280 282 286 286 281 272 256 250 244 243 252 250 224 161 164 185 194 194 203 211 212 214 214 212 212 214 213 212 211 210
304 307 309 316 322 326 330 330 330 334 334 331 330 329 328 326 324 323 322 321 318 306 299 311 317 321 320 319 319 322 323 322 321 320 315 311 311 311 312 308 305 303 299 293 289 288 287 285 285 285 284 282 283 284 285 286 286 285 284 285 287 282 275 265 250 250 243 241 250 245 224 158 175 189 190 188 196 203 203 210 214 210 209 212 213 214 213 213
309 307 308 315 321 325 329 329 331 332 329 328 329 327 326 326 325 325 324 320 309 283 297 318 322 320 320 320 322 325 326 326 326 325 322 323 322 319 317 312 309 308 304 300 297 294 292 290 289 287 284 284 285 288 289 287 286 288 288 286 286 278 270 269 263 261 251 247 252 236 224 195 178 186 187 190 201 204 201 209 214 212 212 213 215 218 218 217
313 311 311 315 321 325 327 328 329 329 327 327 326 326 326 326 327 328 328 327 316 297 305 317 321 320 321 323 324 327 329 328 328 328 329 329 325 322 320 314 311 309 306 304 300 299 298 294 291 289 288 287 287 289 287 285 286 287 288 283 280 281 284 283 276 272 267 265 264 234 219 210 189 191 190 194 204 207 206 210 216 219 220 220 221 223 224 226
315 315 315 318 322 323 324 326 328 326 326 325 325 326 327 327 328 328 330 353 335 318 315 319 321 322 324 325 324 326 329 329 328 327 327 325 323 322 320 315 312 310 309 305 300 300 299 294 293 293 292 291 288 287 283 283 286 285 287 285 284 289 290 287 282 279 276 266 258 229 213 212 195 190 188 195 205 210 212 215 221 225 227 228 228 231 233 237
316 318 318 319 321 322 324 326 326 325 324 324 324 326 326 327 328 327 329 64 318 317 319 322 322 323 326 326 325 327 329 329 326 324 323 323 323 322 319 316 312 310 310 307 303 303 301 299 301 300 297 295 290 287 281 281 289 289 291 289 289 295 291 290 286 278 272 254 251 233 212 207 182 185 186 194 209 215 218 221 227 231 233 235 236 241 244 249
318 320 319 321 323 323 325 324 324 323 323 324 325 325 326 327 327 330 348 294 319 319 317 324 325 326 329 330 329 329 328 328 326 324 324 324 324 322 321 319 313 313 312 306 303 304 305 304 305 303 301 301 297 291 283 289 301 297 293 295 300 303 295 290 283 267 256 238 249 232 207 204 209 191 190 196 215 225 229 229 233 235 238 241 243 248 254 259
321 322 322 323 324 323 323 323 323 323 323 324 325 325 326 326 324 334 129 314 322 321 319 326 328 328 331 334 334 331 328 328 327 326 325 326 327 324 325 324 321 324 318 305 305 309 310 308 307 305 304 304 300 299 301 306 310 298 295 306 307 306 296 281 266 209 200 247 255 202 196 202 218 191 192 203 223 231 235 236 237 238 240 244 248 253 260 268
328 326 323 322 322 322 322 323 323 323 324 325 326 326 327 328 324 303 307 316 319 320 324 328 330 332 336 337 336 335 333 332 330 330 330 331 332 332 335 338 339 344 336 325 325 321 320 317 309 305 306 306 301 309 316 314 310 300 302 310 308 313 328 288 249 194 224 255 210 175 189 206 220 188 194 209 226 231 233 234 235 238 243 248 254 261 268 275
329 324 321 321 322 322 322 323 323 324 325 326 327 327 327 330 321 305 318 320 318 322 325 329 333 335 339 340 338 336 336 336 334 336 336 337 338 340 346 349 350 356 346 335 335 335 336 327 314 310 310 311 312 317 322 317 313 310 306 304 288 31 15 297 268 283 275 244 168 171 190 212 207 192 199 210 222 226 227 230 233 238 246 254 261 268 276 281
324 321 321 322 323 323 324 324 325 326 328 329 331 331 328 323 312 317 323 324 323 326 328 330 335 337 341 344 341 339 341 340 338 340 341 340 341 343 350 354 353 353 345 342 343 341 335 318 318 323 315 313 315 317 319 319 319 315 305 285 261 271 277 250 245 250 267 256 204 203 215 209 195 196 203 208 217 221 224 229 234 241 249 259 268 274 282 287
323 322 322 323 324 325 326 327 329 331 333 334 335 337 334 323 316 320 324 326 328 332 333 334 337 342 346 346 343 342 343 343 340 341 342 341 345 351 354 352 352 349 348 350 345 336 322 306 321 322 314 313 313 310 318 324 325 319 305 287 282 282 263 257 274 263 261 309 264 210 196 201 199 203 205 208 216 220 225 233 237 244 253 262 273 279 286 293
323 322 322 325 327 329 329 331 333 334 334 336 337 337 334 325 321 324 327 330 333 335 338 339 340 345 347 346 345 344 343 344 342 341 344 346 352 358 352 349 351 349 349 351 347 337 310 311 322 320 314 313 306 306 321 326 321 308 305 297 286 286 280 276 288 288 279 316 259 196 151 162 186 209 214 211 218 222 227 237 242 249 258 265 276 283 290 296
321 322 324 327 329 330 330 330 332 332 332 333 334 334 331 324 326 329 332 335 337 338 342 345 345 346 346 344 346 347 345 346 346 346 351 357 357 353 348 349 351 347 346 347 345 333 311 313 322 324 318 311 302 311 321 322 317 308 304 302 297 290 286 280 288 330 10 290 247 205 176 181 187 213 222 215 220 225 230 240 249 256 265 273 280 288 294 299
322 324 326 328 328 328 328 328 330 330 329 330 334 334 331 329 332 336 339 340 341 342 344 347 347 345 345 344 346 350 350 351 354 356 1 2 355 349 347 348 347 343 342 341 336 330 318 314 319 324 319 308 310 315 317 317 315 309 299 303 311 296 289 300 296 320 336 290 286 225 199 210 212 223 229 220 221 227 233 243 254 263 270 278 286 293 298 302
325 325 325 325 325 326 327 329 330 329 327 332 337 337 334 337 340 342 344 343 344 345 345 347 347 346 346 347 349 354 357 359 1 3 4 360 352 347 345 343 341 338 335 334 331 326 319 307 306 316 314 311 314 314 317 318 315 311 302 315 334 323 308 310 291 280 272 275 304 286 250 219 216 225 236 232 228 231 238 247 258 268 276 283 290 296 301 305
323 323 323 324 325 327 330 332 333 331 332 336 340 341 342 345 347 346 347 347 346 348 347 347 349 350 351 353 357 2 3 4 5 3 359 354 350 346 340 334 333 332 329 329 327 321 315 292 286 304 314 317 317 316 318 318 317 318 323 338 347 343 333 318 295 281 271 241 222 290 292 228 213 226 235 237 236 239 245 253 263 275 284 291 296 302 306 309
324 325 326 327 329 332 335 335 336 336 338 342 345 348 350 351 350 350 350 349 348 349 350 351 352 354 356 0 6 7 5 5 4 360 352 348 347 341 333 330 330 331 330 329 327 322 316 293 286 302 319 323 317 318 317 305 299 321 334 345 346 341 337 327 294 283 286 269 252 271 279 262 259 258 250 248 252 254 259 267 277 288 295 300 305 308 310 312
331 332 333 334 335 337 338 338 340 342 345 351 356 358 358 356 354 352 351 350 351 351 352 354 355 358 2 6 8 6 3 2 359 355 347 340 339 335 331 331 332 332 332 332 331 328 323 308 295 305 321 319 311 316 314 271 277 312 327 337 339 338 333 318 272 297 307 298 285 277 272 277 290 299 290 283 284 284 288 293 298 303 305 307 309 310 312 313
339 340 341 340 339 342 344 344 346 351 357 3 6 6 5 1 357 354 353 353 354 356 356 356 358 3 6 7 6 1 359 358 353 350 345 337 335 333 332 334 334 334 334 334 333 331 328 318 308 315 323 317 303 305 292 261 296 313 318 324 330 333 327 308 291 298 301 299 299 302 288 296 320 333 325 318 314 310 308 307 307 308 308 308 309 311 314 316
348 349 349 347 347 352 356 355 358 3 9 10 9 9 8 5 1 358 356 355 357 359 358 358 2 6 7 5 1 357 357 355 348 345 343 337 335 334 333 335 335 334 334 334 332 331 331 325 319 324 331 328 312 303 300 301 312 318 319 322 326 326 322 314 303 303 301 293 303 298 249 293 324 326 323 323 320 315 312 310 309 309 309 310 312 315 317 317
359 0 359 357 0 6 6 7 11 12 12 11 10 11 10 7 4 2 0 358 360 1 359 1 3 3 4 1 356 353 353 351 348 345 342 339 336 334 334 334 335 335 336 337 336 336 336 334 329 327 325 312 305 304 308 310 315 320 321 321 324 321 319 319 315 313 306 288 292 275 265 292 312 318 320 321 318 314 311 310 310 312 312 313 315 317 318 318
7 9 7 6 8 11 11 16 17 14 13 12 12 14 13 9 5 3 2 360 1 1 360 1 1 360 358 355 351 349 347 348 348 346 343 340 338 335 334 335 336 338 342 343 343 344 342 338 336 327 298 292 298 303 308 312 318 322 320 320 322 321 321 323 324 318 306 302 300 289 286 299 310 314 316 316 315 313 311 312 314 315 315 316 318 319 319 319
10 12 13 13 12 10 14 19 17 14 14 14 15 15 13 10 6 3 2 1 1 0 1 1 359 356 354 351 348 345 344 344 346 345 344 341 338 336 336 338 342 346 350 353 352 348 342 338 334 326 315 307 307 311 314 322 327 324 320 319 321 322 323 326 331 325 316 317 310 302 304 308 311 314 315 316 315 314 314 318 320 319 319 319 320 320 320 321
8 11 13 15 15 14 16 20 18 16 16 16 17 15 11 9 6 3 3 3 360 359 2 1 356 354 353 351 347 342 341 342 344 344 343 340 339 339 340 345 354 358 359 0 355 348 344 339 332 329 326 320 317 318 320 327 329 325 320 318 317 319 323 327 331 321 313 313 306 307 313 313 314 315 316 316 316 317 319 322 321 320 319 319 320 320 322 322
7 11 12 14 18 18 18 18 18 16 15 15 16 13 10 8 5 3 4 4 1 359 0 358 355 354 353 351 346 341 341 344 344 343 342 340 340 343 348 356 8 6 2 359 352 349 349 345 339 338 336 328 320 318 321 325 326 320 315 313 316 321 324 326 323 309 304 308 309 313 316 315 315 315 316 316 317 318 320 320 320 319 319 320 322 323 323 323
7 10 12 14 17 17 17 16 16 14 12 13 14 12 9 7 5 3 2 2 0 357 355 355 354 353 352 349 345 342 342 344 343 343 343 343 344 349 0 11 12 6 0 355 353 356 357 356 352 348 343 333 321 317 320 323 321 313 309 309 313 318 322 322 318 311 312 315 316 316 316 316 316 316 316 316 317 319 320 321 321 321 321 323 323 323 323 322
9 10 11 13 14 14 13 12 12 11 10 11 11 10 8 6 5 2 359 359 357 354 353 352 351 350 349 347 344 341 342 342 343 344 347 349 354 1 11 13 7 1 356 355 359 3 4 3 359 352 347 338 327 322 321 319 312 302 298 303 310 315 319 323 322 320 321 321 319 319 319 319 319 319 319 320 321 322 322 322 322 322 323 324 324 323 323 323
13 13 12 12 13 14 12 10 9 9 10 10 10 9 7 6 6 3 359 357 355 353 350 349 347 347 346 345 343 342 342 343 345 350 354 358 4 10 10 6 2 356 354 359 5 5 5 4 358 354 349 341 332 325 319 316 308 295 297 312 318 321 322 324 323 321 321 321 321 321 322 322 323 323 324 323 323 322 322 323 322 323 323 323 324 325 324 324